Theta_e
304 304 305 305 306 306 306 306 307 307 306 301 298 299 293 292 291 301 305 308 305 295 287 290 291 291 295 299 298 298 297 296 301 305 306 304 306 305 305 305 303 305 304 304 303 304 300 302 301 303 304 305 307 310 309 309 310 310 307 311 309 319 297 295 295 297 301 306 308 306 307 307 304 303 302 300 296 298 295 290 290 289 291 290 286 283 287
304 304 305 305 305 306 306 306 307 307 307 302 301 294 293 294 294 299 307 309 302 293 284 283 284 293 295 297 297 297 297 295 298 303 304 304 304 303 304 305 307 304 307 305 302 305 295 304 303 302 305 303 310 309 308 310 307 308 307 305 310 296 296 295 288 289 291 296 301 300 302 305 299 298 300 300 301 302 300 300 294 289 292 291 286 282 284
304 304 304 305 305 305 306 306 306 307 307 306 300 294 295 293 297 298 302 304 300 290 292 288 286 290 291 291 291 292 294 296 297 304 303 307 306 304 302 305 305 304 306 305 305 306 303 300 306 305 304 303 309 308 307 309 308 311 314 318 311 303 294 291 284 284 282 283 284 288 291 296 297 302 303 303 302 301 299 293 291 289 290 294 285 285 291
304 304 304 305 305 305 306 306 306 307 307 307 303 298 297 294 284 291 293 296 295 293 296 291 290 289 290 287 291 293 290 293 299 306 304 306 307 305 305 305 306 303 303 300 301 302 305 301 300 302 300 302 305 306 307 307 308 315 316 315 309 301 300 295 290 290 289 292 294 297 297 295 295 298 302 303 304 303 301 295 290 288 289 292 292 296 294
303 304 304 304 305 305 305 306 306 306 306 307 301 301 297 295 287 286 284 292 291 290 290 292 291 287 292 283 292 290 291 292 297 303 298 305 303 306 302 301 300 301 301 299 301 303 301 303 302 300 300 302 303 307 306 306 311 314 310 313 308 300 293 300 302 297 296 298 298 302 302 299 297 297 299 302 303 302 298 292 293 297 294 287 292 297 297
303 303 304 304 305 305 305 306 306 306 306 307 303 297 297 285 291 294 294 288 283 285 286 293 291 292 291 289 293 291 291 293 291 300 301 304 304 297 300 300 300 302 301 301 294 299 299 301 297 301 301 300 302 303 305 304 309 308 304 308 305 300 291 302 302 302 302 299 300 303 303 302 301 298 299 300 301 301 299 298 300 299 291 288 295 298 297
303 303 304 304 305 305 305 305 306 306 306 305 298 291 294 293 294 294 297 287 291 291 292 294 293 289 291 290 293 289 291 291 295 294 295 301 299 301 287 294 298 299 303 301 298 299 293 292 300 299 298 299 299 298 301 305 305 304 302 303 304 302 293 300 302 300 299 298 298 301 301 300 300 299 301 302 301 300 301 301 300 300 297 296 299 299 299
303 303 303 304 305 305 305 305 306 306 305 303 298 296 290 289 288 286 293 293 291 292 292 292 290 287 293 284 288 291 292 290 293 296 295 290 293 301 293 290 294 297 301 301 296 300 301 300 296 301 300 297 300 298 301 298 302 303 301 301 304 301 290 301 301 297 296 299 302 300 299 298 298 298 300 302 299 301 302 301 301 301 301 301 300 299 299
302 303 303 304 304 305 305 305 306 305 305 297 296 296 297 296 295 294 289 286 289 293 290 289 289 284 288 287 291 292 291 290 293 294 297 292 290 293 289 290 291 296 299 300 302 306 304 305 304 305 304 295 302 298 300 304 298 300 300 300 301 301 292 300 298 291 293 296 301 300 299 297 296 296 297 299 299 298 298 296 300 299 298 300 299 296 297
302 302 303 303 304 304 305 304 305 305 304 296 294 292 298 297 297 297 292 283 293 288 290 289 286 281 289 293 291 291 291 292 292 285 295 295 296 294 292 292 290 291 292 293 300 305 307 306 307 309 310 308 307 306 305 305 303 301 299 302 299 299 297 293 293 290 288 296 300 299 296 294 292 291 298 300 300 301 303 301 303 303 303 298 291 297 302
302 302 303 303 304 304 304 305 305 305 301 296 295 293 296 294 292 293 290 283 285 287 287 287 287 291 292 294 292 293 291 291 292 286 284 295 293 295 294 293 290 288 293 299 304 305 306 307 308 311 311 311 309 309 308 307 308 306 301 299 299 300 299 294 297 287 289 297 298 295 289 285 286 294 304 303 301 300 300 300 301 303 305 299 303 303 303
301 302 302 303 303 303 304 304 305 305 303 299 297 294 297 298 295 292 286 281 283 288 287 286 288 290 290 292 293 291 290 290 291 294 289 292 295 296 296 297 295 287 301 304 302 301 304 306 308 310 310 309 309 309 307 305 305 309 309 303 300 298 298 293 295 290 290 293 292 289 284 285 295 303 306 312 308 304 302 302 304 303 303 303 303 303 304
301 301 302 302 303 303 303 304 304 304 305 300 296 293 297 299 295 291 289 286 281 285 284 286 291 291 291 292 291 291 292 293 294 295 294 293 292 294 296 295 293 295 302 299 299 300 298 297 299 300 303 306 309 309 307 305 304 306 307 306 301 299 294 296 291 291 287 288 284 282 283 292 301 303 308 313 312 310 306 300 302 305 306 305 304 304 306
301 301 302 302 302 303 303 304 304 304 305 303 297 295 297 298 294 290 288 282 283 287 289 286 288 289 289 289 290 290 292 292 293 294 292 295 294 293 295 297 297 299 300 299 298 298 292 291 287 290 293 298 301 299 303 304 304 303 303 308 310 306 303 297 291 292 288 285 284 287 293 297 299 303 306 307 305 306 302 292 298 307 311 311 309 305 305
301 301 301 301 302 302 303 303 303 304 304 304 297 295 296 297 298 294 291 288 282 286 286 281 287 288 289 289 290 288 288 288 289 289 294 296 295 296 296 297 298 299 301 298 293 296 292 291 285 283 287 286 282 286 299 300 303 305 304 307 313 310 302 297 293 289 290 288 286 284 285 285 291 305 309 311 312 312 312 301 295 307 313 314 312 310 307
301 301 301 301 301 302 302 303 303 303 304 304 298 295 296 299 299 297 293 289 285 279 282 291 291 290 288 289 290 288 285 285 286 287 287 290 292 294 296 297 298 300 300 299 296 291 287 286 283 284 282 285 293 291 288 296 296 302 306 306 308 310 308 302 292 290 290 288 285 283 282 285 300 304 308 311 313 312 310 298 292 302 312 313 313 311 312
301 301 301 301 301 302 302 302 302 303 303 303 297 295 294 299 298 296 292 290 287 282 290 293 293 292 288 286 289 286 288 283 286 282 280 284 290 292 293 296 297 299 297 293 292 289 284 283 289 289 290 294 288 286 295 294 292 295 302 305 302 302 301 296 291 289 286 285 286 286 285 291 303 306 309 312 312 312 300 288 286 305 311 313 313 312 312
302 301 301 301 301 302 302 302 302 303 303 304 299 294 294 298 299 297 294 290 286 284 289 295 292 287 286 287 286 290 292 289 288 289 285 288 291 289 290 293 291 295 299 289 290 283 282 283 283 283 283 293 296 294 283 292 288 290 295 297 295 293 291 290 289 286 289 286 286 288 292 304 307 306 310 312 311 300 288 285 294 309 312 313 314 313 313
302 301 301 301 301 302 302 302 302 302 302 303 298 294 293 296 299 299 296 292 289 282 290 297 296 293 294 296 292 292 293 290 289 284 281 283 288 292 291 294 294 284 291 288 287 283 283 282 289 289 285 288 294 285 294 286 286 296 298 292 292 293 294 287 290 288 288 290 286 287 292 304 307 307 311 311 302 290 289 302 312 312 312 314 314 314 315
302 302 301 301 301 302 302 302 302 302 302 302 299 291 295 297 299 299 295 291 292 290 293 293 294 292 295 292 288 287 289 289 290 287 284 281 288 290 286 282 287 288 285 287 279 287 285 282 287 292 286 289 291 297 288 292 297 293 294 297 293 293 289 287 288 292 292 285 285 287 287 293 308 308 307 311 295 298 308 311 312 314 313 314 314 315 316
302 302 302 301 301 301 302 302 302 302 302 302 302 292 292 295 298 302 302 298 294 288 289 296 297 295 295 294 294 294 291 287 288 285 288 287 289 284 277 279 282 284 282 287 283 283 287 284 288 289 295 293 294 293 286 289 290 297 298 296 295 300 288 287 290 298 288 286 285 284 295 305 307 308 296 307 309 311 312 311 309 314 315 314 314 316 317
303 302 302 302 301 301 301 301 302 301 302 301 302 294 289 293 298 301 301 300 293 286 289 295 297 296 298 298 298 297 296 295 295 294 289 286 287 286 284 287 285 285 289 291 284 285 287 290 291 287 285 289 295 289 292 285 282 290 297 297 286 301 295 295 288 298 293 290 296 302 307 305 305 310 309 309 311 310 308 308 311 312 314 316 314 315 317
303 302 302 302 301 301 301 301 302 302 301 302 300 293 290 294 295 300 296 291 293 294 296 295 296 297 299 299 301 301 300 300 298 296 294 289 283 285 286 285 284 292 296 293 286 286 287 287 283 290 288 290 289 288 291 292 285 293 288 300 297 304 304 306 302 299 304 300 301 305 304 303 303 307 310 306 307 307 307 307 308 313 315 316 315 316 317
303 303 303 302 302 302 302 302 302 302 302 302 301 294 292 293 295 296 295 294 290 285 288 290 288 285 289 291 296 298 297 297 299 298 298 295 284 283 287 290 292 293 293 295 295 289 288 289 290 291 285 290 293 286 285 285 289 294 292 293 300 302 301 300 295 301 293 287 302 302 301 302 302 304 308 306 307 306 306 307 310 312 315 316 317 317 318
303 303 303 302 302 302 301 301 302 302 302 302 300 300 298 294 295 297 294 286 286 286 283 284 287 292 295 297 298 297 297 298 299 297 296 296 294 289 287 291 294 291 289 294 296 292 286 288 287 287 281 290 293 284 294 289 287 296 286 290 293 294 304 296 299 298 293 293 300 302 305 303 302 303 300 303 305 305 306 308 311 313 316 318 317 318 318
302 302 302 302 302 302 302 301 302 302 302 302 302 295 292 292 295 296 295 296 295 291 284 283 288 296 297 295 294 296 298 297 296 296 296 296 297 296 294 294 293 296 294 296 295 290 284 286 286 286 285 285 294 286 286 293 292 294 290 289 296 297 301 289 298 294 298 302 302 301 301 302 305 301 302 305 305 305 306 309 311 312 315 315 317 319 319
302 302 302 302 302 302 302 302 302 302 302 302 300 296 294 295 296 295 292 293 289 283 285 283 288 292 295 292 295 297 297 296 296 295 295 295 294 296 295 293 292 292 295 292 290 287 284 284 283 283 287 286 292 291 292 290 290 289 287 293 299 296 292 297 296 290 288 291 296 300 291 290 297 301 304 306 308 307 308 309 312 313 314 315 317 319 321
302 302 302 302 302 302 302 302 302 302 302 302 301 298 295 293 296 297 296 296 292 284 284 285 286 289 294 291 295 295 296 297 295 294 293 294 294 293 294 294 293 292 290 289 283 284 283 282 282 286 288 289 289 286 293 293 293 291 291 293 297 294 295 295 290 288 289 297 301 302 300 300 302 304 307 309 309 309 308 309 309 313 316 318 319 319 320
302 302 302 302 302 302 302 302 302 302 302 301 296 295 294 295 297 298 298 299 297 292 288 289 292 288 282 287 295 294 295 295 294 293 292 292 293 292 291 292 292 291 291 286 281 281 282 281 286 285 286 293 290 286 289 283 283 285 289 294 296 298 300 298 298 299 300 302 301 302 302 301 305 307 309 310 311 311 309 310 310 314 317 320 319 319 319
302 302 303 302 302 302 302 302 302 301 301 295 293 289 284 288 297 297 299 300 296 294 285 282 280 284 292 292 290 292 293 294 293 293 292 291 291 291 291 290 289 293 291 285 283 283 281 283 284 288 292 295 287 286 284 284 284 286 293 295 297 298 298 301 302 300 299 303 303 305 306 307 310 310 310 312 313 312 309 308 309 314 319 320 318 317 320
302 303 303 302 302 302 302 301 302 302 300 293 289 281 281 279 288 299 300 299 297 292 285 285 283 288 286 290 291 290 291 293 291 291 291 291 291 291 292 292 291 293 286 286 286 283 282 283 284 286 290 294 290 285 284 284 283 287 291 294 294 295 296 296 298 301 302 302 304 306 308 309 310 311 311 312 311 310 308 308 311 319 323 319 318 318 319
302 302 302 302 302 301 301 301 301 301 295 293 290 286 284 286 292 296 300 299 298 292 285 283 283 280 279 286 290 293 292 292 291 291 290 292 290 292 291 291 289 292 290 283 283 284 284 285 287 287 287 292 293 286 286 285 283 286 291 292 295 296 297 297 298 299 300 301 300 299 299 301 304 304 304 308 308 309 310 310 311 317 322 320 320 318 318
302 302 302 302 302 301 301 301 301 300 293 297 301 302 302 302 302 302 302 300 295 290 290 284 280 281 279 281 288 289 291 290 289 290 287 291 289 290 288 292 291 291 300 289 283 282 284 286 287 286 288 291 286 284 285 284 286 291 292 294 295 296 297 298 299 300 300 300 300 297 296 298 301 304 306 309 310 309 308 310 312 316 317 317 317 316 318
302 302 301 301 302 302 301 301 301 300 300 296 290 291 295 301 300 301 299 296 293 292 289 282 278 277 278 286 281 286 292 286 284 288 282 289 292 289 284 289 289 284 286 285 283 284 286 287 282 283 287 287 288 285 281 285 289 289 291 292 294 295 296 297 297 297 298 299 300 300 300 301 303 305 307 307 307 308 310 310 312 315 314 316 316 315 316
302 302 301 301 302 301 301 300 296 294 292 292 292 293 296 301 301 303 300 292 284 282 283 282 281 277 276 278 278 282 291 288 284 286 283 285 293 289 289 285 286 283 283 292 283 284 282 284 286 282 281 284 283 280 284 286 286 288 289 291 292 294 295 294 295 297 298 299 299 299 301 301 301 301 303 305 306 307 310 310 310 311 312 313 316 315 316
301 300 300 301 301 300 299 297 294 291 289 290 291 300 303 303 303 299 297 294 287 281 279 279 278 275 277 274 274 282 292 286 288 289 287 288 286 292 292 285 282 285 292 288 280 283 283 288 285 281 284 281 281 283 285 287 287 289 289 290 291 292 293 293 294 296 297 298 299 300 301 301 300 301 303 304 306 308 310 309 309 310 311 310 314 314 312
301 300 301 300 299 296 291 291 293 293 290 295 298 302 301 301 299 298 294 292 294 292 282 279 278 279 280 279 282 285 288 279 285 283 283 283 282 284 284 282 281 283 282 281 283 281 286 291 286 280 279 281 284 287 288 289 289 289 290 291 293 294 294 295 296 296 295 295 296 298 299 299 299 300 302 304 305 307 307 307 308 309 309 310 311 312 312
301 301 297 294 291 285 285 287 290 295 300 301 300 293 290 291 282 285 287 284 286 291 283 283 279 282 285 281 277 286 285 280 284 280 280 281 282 281 284 282 281 283 278 278 282 290 287 286 283 282 283 288 289 289 290 290 293 293 293 294 294 294 294 294 295 294 292 292 292 293 296 297 298 299 300 300 304 306 307 308 309 310 311 312 310 311 312
298 296 293 292 288 284 284 286 297 301 297 296 294 286 283 284 283 280 280 282 284 281 283 281 280 282 280 279 281 287 284 281 280 281 278 283 280 278 281 279 281 281 279 278 281 290 280 279 280 279 282 286 286 288 291 292 293 294 294 294 295 295 295 295 296 294 293 293 293 294 294 294 295 297 299 301 306 307 306 306 307 308 309 309 310 310 311
294 289 286 286 285 287 295 298 302 298 293 285 286 284 280 284 281 276 282 278 278 279 283 279 284 283 283 281 280 279 286 282 276 277 280 281 286 279 280 280 281 280 276 275 279 287 279 276 277 278 280 283 285 289 290 291 292 293 294 294 295 295 295 295 296 297 297 296 297 297 297 298 299 300 300 303 308 307 307 306 305 306 307 308 309 310 309
292 290 289 285 288 292 293 294 294 292 285 282 281 281 281 279 282 281 281 279 278 278 284 282 283 282 285 285 284 280 287 289 286 286 283 280 286 284 278 276 281 277 275 275 280 282 281 278 277 277 279 283 285 287 289 290 290 292 292 292 292 294 296 299 301 302 302 302 302 302 301 300 300 301 303 305 309 308 308 307 306 305 305 306 307 307 309
293 292 293 295 295 295 294 292 287 284 283 285 280 277 279 278 281 280 279 275 277 281 282 284 280 282 282 285 285 284 283 288 287 284 281 279 282 280 276 279 280 275 272 276 281 279 278 273 273 276 280 283 286 287 288 288 290 290 291 294 296 297 299 300 300 301 302 302 302 302 303 302 301 301 301 306 309 309 308 307 307 305 306 307 308 309 309
299 298 296 292 290 287 287 283 284 283 278 278 278 275 278 274 275 275 277 281 284 282 282 289 285 288 288 290 286 287 285 289 283 282 280 279 283 281 278 277 276 272 275 281 279 275 274 272 274 278 282 284 285 286 287 288 290 294 296 297 297 298 298 298 299 299 300 301 301 302 303 303 302 302 304 308 309 308 308 307 307 308 307 308 308 309 309
297 296 289 285 284 284 285 275 285 281 279 279 276 272 275 274 275 278 276 278 281 279 282 281 282 283 281 287 286 284 287 287 287 282 282 281 281 277 276 275 274 278 282 277 276 273 274 274 279 279 282 285 288 287 289 294 294 295 296 297 297 297 298 298 298 298 299 300 301 302 303 303 303 304 307 310 309 308 307 307 308 308 308 309 309 309 309
287 284 285 284 281 283 281 275 283 279 274 276 278 274 275 273 276 278 277 282 283 281 284 284 284 284 283 286 286 285 285 281 285 280 277 280 277 278 276 274 276 277 276 271 272 274 275 277 279 281 282 284 286 291 294 294 294 295 295 295 296 296 297 297 297 297 298 298 299 301 301 302 303 303 306 309 309 309 308 308 308 308 309 309 309 309 309
285 284 282 278 276 280 277 275 277 274 277 280 278 278 278 279 280 280 282 283 281 282 283 286 286 287 283 285 280 280 280 280 280 279 281 281 276 274 278 281 280 275 273 273 271 271 276 279 279 281 284 285 290 293 293 294 295 295 294 294 295 296 296 296 296 297 297 298 299 300 300 301 302 302 304 309 308 307 308 309 309 309 309 309 308 308 309
285 285 284 282 278 279 281 274 275 278 280 280 282 282 282 282 282 282 281 283 282 284 286 288 288 286 281 282 280 281 281 280 277 279 279 275 275 278 281 276 273 273 270 268 270 274 277 278 281 282 286 290 291 292 293 294 295 294 295 295 295 295 296 296 297 296 297 298 299 299 300 301 302 303 304 307 308 307 307 309 309 309 309 309 309 309 309
282 285 284 276 275 279 276 277 282 282 283 282 282 283 283 283 282 281 284 284 285 284 284 285 283 281 281 283 283 279 279 280 277 278 280 278 280 276 275 274 272 274 274 271 273 276 278 279 282 286 289 290 290 292 293 293 293 294 294 295 295 296 296 296 296 297 298 298 298 299 300 301 302 302 303 306 308 307 307 309 310 310 309 309 309 309 309
286 283 280 279 281 280 279 280 280 279 281 282 282 282 282 282 282 283 284 283 284 284 284 282 281 280 278 280 279 278 276 280 274 275 280 278 274 271 271 268 270 269 275 279 277 278 281 283 287 288 289 289 290 292 292 292 293 293 294 295 295 296 297 297 297 297 298 298 299 299 300 301 302 302 303 305 307 307 307 309 310 310 309 308 308 308 309
284 282 282 280 279 279 281 282 280 277 279 279 280 280 280 280 281 282 286 285 286 285 287 286 286 282 281 279 276 277 276 279 277 278 276 272 273 274 273 269 270 271 273 277 279 282 285 287 286 287 288 289 290 292 292 293 293 295 295 296 297 297 297 297 297 298 298 298 299 299 299 300 301 303 303 304 308 309 308 309 310 310 309 309 309 309 309
285 283 282 284 279 277 280 276 276 275 277 279 280 280 280 280 280 280 286 286 285 283 282 280 280 279 278 276 274 271 274 280 277 274 273 272 277 274 271 272 274 276 279 281 284 285 284 285 286 287 288 289 290 291 292 293 293 294 295 296 297 297 297 297 297 298 298 299 299 294 299 300 302 304 305 307 308 307 307 308 309 310 309 309 309 309 308
281 277 278 282 284 283 282 282 281 281 281 281 282 282 283 282 282 282 285 285 284 280 278 280 280 277 275 271 274 277 280 278 276 275 273 275 278 274 272 277 278 280 281 282 283 284 286 288 287 289 288 289 291 290 291 292 293 294 295 295 296 296 297 297 298 298 298 298 299 299 300 301 303 304 305 305 307 307 306 306 308 309 308 309 309 310 309
Wind_Speed
19 20 21 22 23 23 24 25 24 23 24 12 9 5 4 4 3 8 9 9 4 3 4 2 5 3 2 6 2 5 3 4 5 7 9 6 6 4 7 6 7 4 4 5 5 9 4 4 4 5 6 5 12 13 19 19 16 16 11 20 6 14 1 6 3 1 2 13 12 7 11 11 7 7 3 6 6 9 8 7 5 5 1 1 1 1 5
19 20 20 22 22 23 23 24 23 21 19 8 7 3 2 2 3 7 7 10 5 13 5 5 5 2 3 2 2 4 3 5 6 7 8 4 5 3 5 5 5 3 5 2 4 7 4 4 10 4 8 5 14 14 18 19 10 14 8 6 13 4 4 5 3 2 1 3 7 3 3 9 5 5 5 5 5 4 3 4 2 1 3 6 6 3 3
19 19 20 21 22 23 24 24 23 22 18 11 2 2 2 4 3 4 7 8 8 7 1 3 3 4 5 4 9 8 4 5 2 8 7 4 4 3 4 5 6 6 6 2 3 5 7 4 4 7 7 8 10 14 18 17 9 13 13 17 12 2 4 2 5 6 5 3 3 7 4 10 4 3 10 6 7 5 1 4 1 2 3 4 3 2 7
18 19 20 21 22 23 23 23 23 22 20 14 1 1 2 3 2 5 6 6 6 4 1 3 3 2 6 5 3 2 3 4 5 4 6 7 3 4 3 7 4 10 10 7 6 6 7 4 6 9 9 10 6 12 16 13 11 26 23 24 10 3 3 4 2 10 11 10 10 8 5 3 5 4 8 3 1 6 4 5 2 4 2 4 6 8 4
18 18 19 20 21 23 24 23 24 24 22 15 2 1 2 1 3 3 6 7 5 2 3 8 6 4 2 1 2 3 3 4 2 10 2 5 5 2 6 7 9 8 9 7 6 9 8 5 3 10 10 8 6 12 12 11 14 29 17 23 8 4 6 7 10 9 7 11 8 8 5 2 3 6 9 15 10 4 6 5 7 4 4 5 3 5 9
17 18 19 20 20 22 24 24 24 26 24 16 3 3 1 2 1 2 1 1 3 7 6 9 7 8 4 1 0 2 3 4 3 2 3 1 5 4 3 7 7 6 7 6 4 11 8 4 6 7 6 14 12 10 15 7 15 22 13 12 7 7 3 8 13 15 13 9 4 8 7 3 4 5 4 7 13 9 8 9 13 8 7 9 6 6 8
16 17 18 18 20 21 23 24 23 26 26 17 2 4 4 3 1 1 4 2 2 1 5 6 4 8 5 3 2 3 2 4 2 1 2 2 3 4 3 6 5 5 4 4 2 6 7 6 3 6 8 10 10 10 12 9 12 15 14 12 4 7 4 8 12 11 12 6 7 6 11 8 11 9 14 13 8 9 12 13 6 10 7 8 9 10 11
15 16 17 18 19 21 22 23 23 25 25 9 8 6 3 4 2 4 4 2 2 3 4 4 5 6 6 3 4 2 2 2 2 1 3 2 3 3 4 8 7 5 3 2 1 1 1 2 4 2 5 6 4 3 1 7 14 11 10 10 6 6 7 16 12 10 10 8 10 2 2 6 2 2 1 1 7 12 15 13 6 5 2 1 8 8 7
14 15 16 17 18 20 21 22 22 23 20 7 6 2 4 3 1 1 1 4 3 2 3 4 5 3 7 6 5 5 10 6 3 2 2 4 3 3 5 7 6 3 2 1 1 2 2 4 6 6 1 3 1 2 3 4 10 12 12 7 10 6 7 10 6 9 10 7 11 8 3 6 4 4 7 6 5 5 7 6 7 8 9 7 8 7 7
12 14 14 16 17 17 19 20 22 20 16 5 3 4 4 3 2 1 1 1 2 4 3 3 3 4 3 4 4 3 5 4 6 3 5 5 4 4 5 7 3 4 4 5 3 4 4 7 7 6 6 6 6 6 8 6 4 6 8 8 7 5 8 9 9 8 6 8 7 12 3 5 9 4 3 4 5 10 7 3 7 12 11 9 8 11 10
12 13 14 15 16 16 17 19 19 19 11 8 5 3 4 6 5 6 3 2 5 4 4 3 5 2 3 8 5 6 6 9 5 4 2 2 6 6 6 7 4 3 1 3 5 4 6 7 8 4 5 7 8 7 8 10 7 5 4 5 5 7 7 7 3 3 7 11 10 5 2 3 3 4 1 4 7 10 3 1 2 2 8 7 13 13 8
10 11 13 13 14 15 16 17 18 18 12 3 1 2 2 2 2 0 3 3 3 3 4 1 3 3 6 8 5 5 7 8 6 2 1 3 3 5 7 9 5 4 3 5 5 6 7 5 4 3 6 8 10 11 11 11 8 8 7 6 8 11 9 6 2 3 8 5 8 1 3 4 5 2 5 11 7 8 12 6 2 5 2 5 6 3 7
8 10 11 12 13 14 14 15 16 16 14 6 4 2 3 4 0 1 1 1 1 3 5 5 6 5 7 7 5 6 7 5 5 7 3 4 5 5 5 5 6 5 8 7 8 7 5 6 7 7 8 8 7 9 11 11 11 7 6 6 4 6 5 6 4 3 2 3 2 1 3 4 5 5 6 16 9 11 16 9 3 11 17 10 7 9 10
8 8 10 11 11 13 13 14 14 14 15 9 6 3 3 4 5 3 2 2 4 1 1 5 6 10 11 11 7 7 4 7 6 4 6 3 3 4 5 7 7 8 7 4 4 3 4 4 3 5 5 1 1 2 5 9 9 6 6 5 4 4 5 1 7 2 4 2 0 5 5 5 9 9 11 13 5 8 3 2 4 13 15 17 18 13 5
7 8 8 10 11 11 12 12 13 14 14 11 3 3 4 4 4 1 1 1 1 3 0 0 5 7 9 6 7 7 4 4 6 5 4 3 2 3 4 8 9 9 6 4 4 2 1 0 2 2 4 2 1 3 1 2 1 4 6 4 5 1 1 1 3 5 1 4 4 5 2 2 3 3 11 6 6 11 7 6 4 7 18 18 17 19 16
5 7 7 8 9 9 10 11 11 12 13 11 4 4 4 2 3 1 1 0 1 2 1 2 4 5 6 3 4 2 5 5 4 3 5 5 3 9 5 8 8 6 5 3 0 1 1 0 2 0 2 2 2 1 3 1 2 1 2 2 5 4 2 1 2 5 5 0 2 3 3 2 4 15 14 17 11 9 4 2 2 3 18 18 18 20 18
5 5 6 7 8 9 9 9 9 11 12 12 5 4 3 4 5 4 2 2 1 5 2 4 4 3 2 4 7 5 6 4 5 2 3 4 3 5 10 11 5 4 6 3 4 3 3 1 2 3 3 3 3 3 1 0 0 3 5 1 1 4 3 6 6 4 4 3 3 3 2 0 10 14 13 16 15 8 2 1 3 11 22 17 16 17 18
4 5 5 6 7 7 8 8 8 9 10 10 5 2 4 3 3 3 2 1 0 4 2 7 8 4 4 3 4 3 2 3 5 3 0 3 2 5 6 5 7 6 3 3 2 2 1 0 0 2 4 4 2 2 1 1 1 1 1 3 3 3 2 3 2 4 8 3 2 0 1 2 9 15 14 18 7 7 6 2 7 16 19 17 14 15 13
6 5 4 5 6 7 7 7 7 8 9 10 5 2 2 2 6 3 0 0 1 4 4 7 3 3 2 2 1 3 1 3 5 1 3 4 2 4 5 2 2 3 6 1 3 1 1 3 2 2 2 4 5 1 5 1 1 0 0 2 3 1 1 1 1 2 3 5 2 3 2 1 10 14 12 13 7 6 1 6 9 13 16 16 13 14 14
6 6 5 4 5 6 6 7 7 6 7 9 6 0 6 5 4 3 1 1 1 4 9 7 3 5 2 2 5 3 7 4 1 1 1 1 4 6 8 2 4 3 6 3 3 1 2 2 2 2 3 3 2 2 3 3 2 0 1 1 1 1 1 2 1 3 2 2 1 2 1 3 13 16 6 14 8 1 5 9 11 7 12 13 15 11 14
7 7 6 5 4 5 6 6 7 6 6 7 5 2 5 3 4 4 3 3 1 4 6 3 1 4 5 6 5 5 4 8 5 2 3 3 4 2 1 2 3 2 1 1 1 2 0 2 3 2 1 2 4 3 3 5 7 3 1 2 3 0 1 0 1 2 2 3 1 2 1 5 8 9 4 4 2 2 4 6 10 10 9 13 13 13 12
8 8 7 6 6 6 6 7 6 5 5 6 5 1 1 3 5 4 4 2 2 4 6 8 6 9 11 10 10 9 10 12 11 5 5 5 3 1 3 1 2 1 1 1 3 3 3 1 1 2 2 4 2 3 6 3 2 3 2 2 1 2 1 1 1 2 2 2 3 3 2 2 3 4 2 2 2 2 3 5 6 9 11 11 11 15 16
9 8 8 7 6 6 5 6 6 5 4 5 3 1 2 5 5 3 4 2 2 2 3 6 6 6 7 10 10 11 12 10 10 7 7 4 5 4 4 3 4 2 0 2 2 3 2 1 3 2 2 1 2 5 3 4 4 4 3 2 1 1 2 2 0 2 4 4 8 4 2 4 6 3 1 6 6 3 4 6 8 7 8 9 12 15 15
10 10 10 9 8 7 7 6 6 5 5 4 2 0 2 3 5 4 3 1 1 5 6 3 2 3 1 6 7 4 5 5 6 7 4 7 6 6 3 3 3 1 0 3 4 3 3 2 4 0 2 3 2 1 3 3 2 2 4 3 1 1 0 1 1 2 4 5 4 11 13 8 9 5 2 5 5 6 5 6 7 7 8 9 13 13 14
11 11 10 10 9 8 6 7 6 6 5 5 3 1 1 2 2 1 3 2 2 2 3 6 6 9 9 8 7 7 4 4 8 7 5 7 9 8 8 10 5 5 5 5 1 3 2 1 2 0 2 4 1 5 2 1 5 3 4 4 4 4 3 7 2 0 2 5 6 9 7 9 10 1 7 8 11 13 7 5 4 6 6 8 13 13 14
11 11 10 10 10 9 7 6 7 7 6 6 5 1 1 3 3 3 2 3 3 1 4 4 6 4 5 9 9 7 11 12 10 9 7 8 9 12 13 7 3 1 2 3 5 3 3 0 1 2 1 5 3 3 2 4 6 4 4 8 4 5 5 3 1 3 5 7 7 7 11 2 1 6 8 5 7 11 13 10 9 9 11 12 16 13 10
11 11 10 10 10 10 9 8 7 7 7 7 3 1 3 4 4 3 2 1 3 3 2 4 5 7 7 13 14 10 8 6 6 7 7 8 8 7 9 7 8 2 2 1 1 3 1 1 2 3 3 5 2 4 4 6 4 5 4 3 2 3 4 2 4 5 4 4 7 5 8 9 12 11 9 11 10 10 11 10 10 11 12 13 16 19 12
11 11 11 11 10 10 9 9 7 7 6 6 3 3 3 3 5 5 5 5 4 3 3 4 6 9 9 13 8 5 8 9 7 6 6 9 9 6 6 10 9 5 2 4 3 0 2 2 5 4 2 2 1 5 3 4 2 4 6 4 2 4 3 1 2 2 4 7 6 4 6 8 6 10 11 9 9 7 9 9 11 11 10 10 11 15 13
12 11 11 11 11 11 10 9 8 6 5 3 1 5 5 6 6 5 6 5 5 4 3 5 6 4 4 7 9 12 10 6 7 7 7 8 8 6 5 6 7 6 4 3 3 3 3 4 3 2 2 3 2 4 2 3 2 7 8 4 3 4 5 6 8 7 9 10 9 8 5 6 6 9 10 11 8 6 7 7 7 10 8 8 8 7 7
12 12 11 11 11 11 11 10 8 6 4 1 1 1 1 1 0 2 3 1 3 3 1 1 4 3 3 4 8 8 11 11 7 7 7 6 6 6 5 4 4 5 4 4 4 3 3 2 2 2 1 4 2 2 2 2 4 8 7 7 5 5 5 5 5 6 8 9 7 6 7 9 7 6 7 8 8 6 6 8 7 9 6 3 3 3 3
13 12 12 12 12 12 11 10 9 7 5 2 1 1 0 0 1 1 5 5 3 2 1 0 5 4 6 4 5 10 11 9 7 6 8 7 6 7 5 4 2 3 1 1 0 5 2 1 2 3 3 5 4 1 3 3 7 6 13 6 4 4 7 10 7 5 7 9 9 8 6 8 6 7 7 6 6 5 5 6 9 9 6 4 3 2 4
13 13 13 11 12 12 11 11 9 7 3 4 5 4 3 2 2 3 3 2 1 2 1 1 3 2 3 4 2 3 8 11 7 4 3 2 3 4 4 5 4 4 4 3 4 1 2 4 3 3 3 4 4 2 3 5 8 13 12 3 3 4 5 7 9 12 13 12 10 10 10 11 7 7 10 9 6 5 5 7 7 7 6 4 3 1 2
14 14 14 14 13 11 12 11 10 6 3 5 9 12 14 15 14 11 3 1 0 1 1 0 2 1 2 5 8 8 3 1 1 1 3 2 3 2 2 2 3 2 3 3 1 3 5 3 2 3 6 3 2 1 4 9 12 14 8 6 5 5 6 6 7 8 9 10 6 8 10 12 13 13 11 8 7 7 6 5 5 4 4 6 5 2 2
15 15 12 11 10 12 12 12 10 7 3 2 3 6 4 10 9 15 3 2 1 1 1 1 1 2 4 4 4 8 1 2 3 1 3 4 2 3 4 2 1 2 2 6 5 1 2 1 4 5 1 2 2 3 6 13 11 7 6 7 7 9 8 9 8 9 10 10 9 9 11 13 13 12 10 9 9 7 6 4 2 3 3 6 7 3 2
15 15 13 12 12 9 10 10 4 3 3 3 4 4 3 9 10 5 6 3 2 1 0 1 1 2 3 3 2 7 3 2 4 2 4 5 3 5 2 2 1 2 5 1 1 2 2 4 5 2 6 3 3 5 10 8 4 4 5 6 4 5 5 6 6 8 9 9 9 9 10 10 9 10 11 11 10 6 5 4 2 3 5 5 8 3 4
13 10 11 13 12 9 3 0 1 3 3 4 4 3 4 6 8 4 6 4 3 1 1 2 2 3 3 2 3 3 2 4 3 2 3 2 2 1 2 3 2 6 1 3 3 2 3 4 3 6 2 2 8 8 3 3 6 8 10 9 6 5 5 7 9 10 9 9 9 10 10 9 8 11 11 10 8 5 4 3 4 4 4 4 6 3 2
12 12 12 9 4 3 4 3 2 4 4 5 6 2 4 4 3 3 2 1 1 1 2 1 1 4 3 4 1 4 3 3 4 4 4 3 2 2 1 2 3 2 1 0 0 2 6 2 2 3 3 8 7 0 2 3 5 7 8 7 5 5 7 8 9 10 12 13 13 10 9 10 11 9 8 9 8 4 3 4 5 5 6 8 4 1 3
13 13 6 5 3 2 1 3 4 4 9 7 7 2 3 2 1 1 1 0 2 2 2 1 6 3 0 1 6 3 5 4 3 3 4 2 1 3 0 1 3 0 2 2 4 6 1 1 3 5 7 9 4 2 2 4 10 11 12 12 12 11 10 10 10 10 11 13 12 11 9 10 11 11 10 10 6 5 6 5 5 6 6 5 3 4 6
10 5 3 2 3 2 4 4 5 10 7 3 2 1 0 0 1 1 2 2 1 2 2 5 6 4 4 5 8 1 3 3 6 1 2 4 1 4 1 0 2 2 1 1 4 1 1 2 2 2 9 2 1 1 4 9 9 10 10 10 10 10 10 10 9 9 10 10 12 11 10 11 13 15 13 9 5 4 4 4 5 5 5 2 4 5 7
7 6 4 4 4 3 1 2 12 9 2 2 1 1 1 1 2 2 1 1 1 2 2 5 3 5 9 11 9 7 3 4 4 4 4 6 1 1 2 1 0 1 1 1 3 0 1 1 2 2 5 2 1 1 2 4 7 8 9 10 10 9 8 7 8 7 6 8 8 10 10 12 13 13 13 8 6 6 5 5 4 3 2 1 3 5 9
6 4 4 4 2 2 2 3 5 2 2 1 1 1 1 2 2 1 1 3 3 2 3 4 2 4 5 6 5 8 3 2 3 3 1 5 3 1 1 1 1 1 1 1 3 1 0 1 2 5 3 2 1 2 4 5 6 8 9 8 5 4 4 5 5 5 6 7 7 7 8 9 11 11 11 8 8 8 6 5 4 2 2 3 4 4 7
5 4 3 5 5 5 4 3 1 1 0 1 1 3 2 2 1 1 1 2 3 2 3 3 3 5 5 10 8 4 2 3 2 1 1 2 1 2 3 0 0 1 1 5 1 0 0 3 3 5 1 3 4 4 5 6 6 5 6 7 5 4 5 5 6 7 5 7 8 8 8 10 12 11 10 7 7 7 6 4 3 3 5 5 6 8 10
12 9 8 4 2 1 1 2 2 1 2 2 2 2 2 1 2 3 2 2 1 2 3 3 3 2 0 3 1 1 2 0 1 1 1 3 1 0 0 1 0 0 3 1 1 1 3 4 4 4 2 5 5 7 7 4 4 3 5 5 5 6 5 5 7 8 8 8 8 8 9 10 11 11 11 7 6 4 3 3 6 6 6 7 8 8 11
6 2 3 1 2 1 1 3 1 2 2 2 4 4 3 2 2 3 2 3 2 3 4 5 4 6 4 1 4 1 0 1 1 1 1 1 1 0 1 1 3 4 1 1 0 3 4 3 5 5 5 5 7 5 4 4 3 3 5 6 8 8 8 9 9 11 13 11 10 9 9 9 10 12 9 6 9 11 8 5 4 7 7 7 8 8 8
4 2 2 2 3 2 3 2 2 1 4 4 3 3 5 6 6 6 7 3 2 4 3 3 2 0 1 2 1 0 1 2 2 1 2 0 0 0 1 2 2 1 1 3 1 2 1 5 3 2 3 4 4 4 4 4 3 4 5 6 7 8 9 10 11 10 11 11 12 11 10 10 10 11 9 7 7 10 12 10 8 9 9 10 8 8 7
4 5 4 4 4 2 2 1 2 2 2 3 4 4 5 5 5 6 4 2 3 5 2 0 1 2 3 0 2 1 0 1 1 1 1 1 1 2 3 0 1 1 1 1 2 5 8 7 2 5 5 4 4 6 6 5 6 5 4 6 7 8 9 10 10 10 10 11 12 11 10 9 9 9 10 8 7 7 9 10 11 12 11 11 11 11 9
3 1 1 1 2 2 1 3 5 4 3 3 4 6 6 5 4 4 3 3 6 6 4 2 2 5 5 1 1 1 0 1 1 2 2 1 2 2 1 1 1 2 2 3 4 5 4 4 4 5 4 4 5 5 5 5 5 6 7 6 5 7 9 11 11 11 11 11 12 12 10 9 10 9 9 7 8 8 10 12 13 12 14 14 12 10 8
3 1 2 2 3 3 6 4 2 2 4 3 5 6 5 3 2 5 6 4 5 5 4 2 2 1 2 1 2 3 2 0 1 3 1 1 1 1 0 1 2 2 2 3 6 2 4 5 5 5 5 4 4 5 5 6 6 7 8 8 8 9 9 11 12 12 11 12 12 11 10 10 10 9 9 8 9 9 10 12 13 12 11 11 11 11 10
2 2 3 3 1 2 2 2 3 2 4 4 4 6 5 6 7 8 7 3 3 2 3 5 1 2 1 0 2 1 1 1 1 2 1 1 1 2 2 2 2 2 3 3 6 5 6 8 6 4 4 4 4 5 6 6 7 8 8 10 10 10 9 11 12 12 12 11 11 11 11 10 10 10 10 8 7 9 10 12 13 12 12 14 14 13 12
2 1 0 1 2 2 3 4 5 4 4 3 1 3 4 5 6 7 4 4 1 3 3 5 1 1 1 0 0 0 1 1 2 1 2 3 2 1 1 3 3 3 2 3 4 5 7 5 3 4 4 4 5 6 7 8 8 9 9 9 9 9 10 10 12 12 12 11 12 12 12 11 10 9 9 9 8 8 9 11 13 14 13 13 14 14 14
1 0 1 2 4 4 5 5 7 4 5 7 6 4 3 3 3 4 1 3 3 5 2 1 0 1 1 1 1 0 3 1 1 3 2 3 2 2 3 5 5 4 6 6 7 8 7 5 5 5 5 5 6 7 8 9 10 10 9 9 9 9 9 9 10 12 12 13 12 12 12 11 10 10 10 9 5 6 10 12 13 13 14 13 14 14 14
2 2 2 3 3 2 1 1 2 6 6 6 6 5 3 4 4 4 1 5 5 3 4 2 3 1 0 2 3 2 0 0 2 1 2 3 1 3 3 6 7 7 7 7 8 8 6 7 5 5 6 8 8 8 9 9 9 9 10 10 9 9 9 10 10 11 12 12 12 11 12 11 11 10 9 8 7 8 10 10 9 10 12 12 12 12 13
Wind_Direction
359 358 358 357 355 354 353 352 349 349 351 6 348 335 23 36 237 263 300 307 349 73 57 349 33 31 349 286 343 344 3 356 18 20 11 17 349 355 29 4 2 38 21 339 353 0 304 301 33 351 43 17 11 330 345 342 356 5 2 345 13 331 119 150 230 332 294 182 205 238 220 200 208 235 197 134 179 197 186 182 184 153 289 111 336 176 251
359 359 358 357 356 354 353 352 348 346 0 352 320 31 21 294 285 317 302 342 51 68 51 355 347 315 312 38 349 345 322 2 17 37 17 27 345 18 8 353 23 315 339 336 6 7 356 351 4 9 21 1 343 342 344 349 1 19 335 322 325 337 304 128 136 57 4 354 347 322 229 185 193 197 219 191 210 203 177 105 65 86 241 161 119 216 286
358 359 358 358 357 355 353 352 346 342 348 356 26 15 299 289 265 246 299 348 28 78 19 72 359 351 355 3 11 357 358 341 63 62 34 7 25 2 12 348 315 2 329 14 354 22 38 311 353 13 15 349 338 347 339 342 348 358 335 344 324 220 234 102 138 155 155 176 198 230 223 195 233 207 204 190 172 168 115 227 321 166 274 124 122 223 254
358 359 359 358 358 356 355 352 345 339 343 351 298 275 357 16 16 304 336 7 16 64 45 109 59 11 9 10 318 355 341 326 45 53 66 20 27 64 340 359 344 17 359 8 5 27 4 15 311 8 344 351 356 337 321 336 347 353 353 355 0 312 328 54 225 170 177 196 189 220 144 133 177 212 196 221 153 152 119 112 95 216 220 212 228 172 223
358 358 359 358 358 358 356 354 346 339 339 349 148 294 153 284 58 349 335 339 36 23 353 12 20 4 320 24 295 341 321 304 73 30 51 11 21 21 40 11 21 360 11 359 335 360 339 24 10 7 335 334 306 306 320 332 8 1 357 356 342 22 358 352 353 308 231 188 186 171 167 196 200 157 176 172 218 148 121 138 209 169 114 267 273 218 160
358 358 359 359 359 360 359 357 349 343 338 348 148 37 353 61 307 76 244 159 301 6 347 357 341 327 20 286 293 295 350 25 33 3 36 346 35 44 326 30 28 17 17 338 356 343 336 16 17 349 2 331 349 348 339 318 15 3 357 354 19 342 281 328 352 329 311 274 208 167 148 207 260 189 187 185 180 179 166 194 209 154 180 205 232 192 181
358 358 359 360 1 1 2 1 354 348 341 342 114 65 332 99 336 15 347 77 299 195 270 313 341 329 336 297 3 329 47 60 48 67 337 18 10 40 36 3 350 0 347 33 346 355 354 351 9 28 346 356 347 347 341 325 10 8 347 352 19 335 252 331 333 324 306 278 220 198 159 180 212 222 184 194 195 211 201 211 189 172 207 200 184 178 197
357 358 359 0 1 3 5 5 0 353 344 336 73 44 53 17 34 320 346 341 306 297 331 339 1 355 336 7 306 337 353 69 340 35 71 24 349 21 47 333 324 334 349 36 61 292 190 284 298 15 351 338 41 323 220 310 324 9 348 333 352 4 292 335 342 349 317 352 12 343 124 147 236 293 335 218 210 216 215 213 173 187 300 254 175 162 224
357 357 359 1 2 4 7 8 7 0 352 43 33 63 38 284 309 276 338 1 303 330 359 351 352 14 355 28 335 8 1 356 309 83 90 91 1 11 343 315 327 323 340 2 256 237 245 235 242 269 231 316 67 26 282 360 310 342 341 345 330 355 298 330 356 358 313 330 2 323 73 89 82 22 23 10 318 258 235 219 198 172 194 184 154 165 215
357 358 359 1 2 5 9 12 12 10 6 68 23 24 307 319 264 286 129 81 336 15 333 317 31 26 323 343 334 351 328 350 11 16 345 10 23 350 335 309 352 300 12 327 274 262 254 261 266 243 217 203 236 214 246 262 283 317 324 313 312 337 331 334 346 335 275 281 353 310 327 47 14 335 8 343 284 257 251 259 177 190 160 145 158 206 211
356 357 359 1 2 5 9 12 15 17 19 35 13 331 344 24 341 343 25 76 322 23 5 354 49 338 318 348 343 356 354 3 17 56 291 338 347 349 342 327 313 307 12 298 275 264 269 267 263 246 225 219 217 236 240 253 236 212 282 318 289 311 321 307 331 277 279 303 316 333 54 101 221 228 49 337 287 289 15 298 252 269 142 189 183 199 192
352 356 358 360 1 4 8 10 14 17 23 5 245 252 259 327 297 77 52 77 267 335 52 359 348 295 354 330 351 351 356 356 352 336 344 328 320 356 5 16 48 27 295 282 296 319 313 290 273 232 249 250 239 245 248 257 252 190 216 236 292 303 311 302 288 268 281 314 349 21 167 212 231 3 55 3 355 14 314 279 26 102 322 283 226 208 155
350 353 357 358 359 2 6 9 11 12 14 11 35 11 305 315 287 56 82 105 247 336 13 323 314 330 343 344 355 350 340 339 353 359 27 17 344 15 23 17 5 320 310 311 331 344 336 307 306 283 264 256 243 239 252 252 257 235 187 226 254 301 323 308 302 246 346 359 34 107 237 240 325 289 2 3 15 18 13 348 335 26 28 359 262 228 193
348 351 354 356 357 360 4 7 7 8 11 14 11 334 313 350 25 22 50 78 300 248 341 320 344 352 348 338 339 324 338 8 337 13 9 327 352 30 24 9 327 309 323 324 347 350 346 19 342 3 316 306 356 345 226 229 233 229 250 198 156 283 311 276 300 236 231 204 169 226 295 340 9 3 360 356 328 319 22 261 296 43 32 16 359 323 269
336 348 351 350 355 357 0 5 4 5 7 11 5 329 355 356 18 50 288 94 269 290 266 149 336 323 324 328 358 346 10 339 22 340 300 326 7 48 41 341 324 329 335 12 349 19 230 354 352 353 318 27 344 259 252 267 252 201 232 215 138 157 227 267 61 285 145 240 309 340 2 243 288 297 294 276 240 243 231 205 276 19 21 11 355 345 321
332 335 341 346 349 350 355 0 2 3 7 8 24 349 302 331 342 13 65 130 110 337 251 17 341 309 314 332 344 351 3 335 330 330 352 345 332 342 19 345 329 337 9 6 319 13 4 97 258 16 251 252 269 16 296 282 323 336 135 289 156 200 168 53 150 255 307 61 174 226 198 235 233 321 314 310 309 292 260 154 306 353 8 2 350 333 326
316 328 333 334 341 346 348 354 359 2 4 13 358 347 303 1 24 8 22 11 79 224 269 344 350 333 355 336 356 11 356 333 324 26 333 327 334 7 334 340 330 22 12 49 2 27 11 341 259 250 278 279 288 213 266 22 276 327 339 222 77 55 42 23 341 275 237 168 148 236 213 42 333 318 316 311 313 306 60 329 260 341 342 345 339 328 326
296 304 316 325 333 337 340 347 353 359 1 7 21 319 291 318 24 10 45 86 45 290 261 29 4 18 20 10 292 278 322 333 349 323 94 283 27 5 330 334 351 322 25 63 359 43 333 214 282 265 268 262 287 11 252 276 176 219 20 339 349 10 342 71 265 282 293 260 220 318 350 338 327 324 314 315 309 69 59 223 275 319 322 328 329 323 323
278 291 301 307 318 328 332 337 344 354 358 4 5 347 293 310 331 13 88 330 173 250 266 1 315 310 313 351 276 295 342 305 281 335 314 9 6 314 283 283 46 352 353 25 38 49 325 284 338 312 288 312 4 35 322 14 235 352 33 38 14 356 110 311 61 299 302 264 172 197 147 278 325 323 322 325 57 27 227 266 305 309 315 316 323 322 340
276 277 284 293 306 313 322 327 336 340 356 1 27 66 267 300 299 288 230 225 232 271 298 298 287 287 13 343 333 346 325 335 270 42 71 306 283 345 17 8 324 31 339 44 39 289 68 304 315 330 4 312 297 275 308 276 329 254 182 190 150 199 88 249 241 283 292 348 82 251 187 319 352 330 349 17 71 331 275 302 306 320 309 318 322 339 337
258 261 262 273 282 297 304 315 324 342 353 353 25 19 331 306 337 0 46 335 305 301 291 295 308 307 309 287 265 263 260 259 278 328 290 314 275 83 42 198 274 6 293 44 340 301 133 321 315 298 284 328 301 338 322 317 312 313 71 181 186 100 108 271 280 63 274 320 332 193 280 286 338 11 53 337 78 264 307 313 322 326 333 329 330 335 340
252 254 259 258 268 280 295 302 309 321 334 338 355 77 294 289 332 329 347 304 212 202 232 276 279 273 266 258 256 244 247 255 256 244 281 296 312 217 207 227 261 182 250 93 35 359 356 278 357 5 312 294 344 303 312 324 294 272 326 64 25 336 223 182 202 225 232 241 277 302 191 359 329 340 34 294 286 330 324 341 324 327 334 336 328 331 332
250 253 252 247 255 271 280 293 300 307 321 326 11 98 269 311 308 323 354 353 308 307 281 279 280 276 271 262 247 245 248 241 252 239 207 227 295 296 247 244 277 224 234 105 168 168 210 121 229 225 313 297 269 306 301 212 238 349 332 316 74 18 324 304 267 238 289 291 262 264 309 348 327 311 328 334 321 338 354 354 350 336 333 332 331 322 327
251 250 249 250 249 254 261 272 285 283 293 309 323 45 299 263 280 329 338 249 324 313 301 294 17 290 353 313 302 291 262 256 235 248 219 171 231 284 314 234 202 15 144 218 174 149 208 143 225 207 220 262 1 299 291 308 318 335 328 340 316 219 263 329 101 286 36 300 325 345 328 329 308 304 284 306 333 332 344 345 342 335 334 333 326 325 320
239 239 240 243 244 242 252 265 273 286 283 277 301 307 290 313 283 33 351 338 337 72 289 307 274 249 266 269 295 297 291 309 299 278 246 206 208 223 236 239 184 192 226 211 52 57 45 174 310 11 249 265 303 274 253 303 290 46 359 289 353 321 9 351 251 255 174 248 300 299 287 284 274 222 357 341 334 330 344 336 325 334 339 332 325 323 323
237 237 234 236 240 243 249 258 271 272 273 284 284 256 252 252 283 318 278 241 240 217 253 268 277 323 326 334 311 290 298 296 280 282 269 244 219 215 229 255 302 270 180 141 130 157 168 77 167 217 211 287 197 206 253 205 269 315 264 258 229 264 338 284 321 318 289 288 289 294 308 322 114 358 331 322 324 331 330 339 345 348 354 345 332 327 319
237 237 235 234 238 241 241 252 261 266 272 271 279 222 250 266 248 252 253 287 346 301 183 244 283 303 346 316 295 296 284 281 303 301 305 307 296 244 220 226 235 284 228 270 358 154 108 173 128 236 186 226 287 270 265 304 268 273 260 250 263 311 275 270 346 316 310 274 288 341 340 320 316 318 322 322 326 329 327 333 343 349 352 355 338 325 330
234 236 236 231 232 235 240 240 243 254 257 267 274 255 246 249 241 220 220 215 201 242 316 297 307 298 308 277 279 288 296 299 290 292 300 298 298 295 218 212 214 222 211 194 285 96 171 215 249 230 226 307 6 293 242 252 292 275 249 246 191 227 258 274 252 208 265 276 266 238 269 281 252 287 302 312 314 325 332 337 338 337 341 349 340 326 332
234 234 236 235 232 231 233 232 237 245 259 257 307 302 289 259 260 238 234 217 197 248 272 281 285 297 277 285 314 302 294 285 286 282 277 276 284 274 222 216 204 197 179 130 145 150 160 217 188 171 210 207 132 258 323 301 235 253 251 227 208 235 244 251 256 261 268 275 282 282 263 272 284 286 299 302 307 318 318 322 327 321 328 348 350 327 318
230 230 231 235 237 230 225 230 233 240 230 81 50 16 13 330 23 57 355 62 171 158 163 302 294 269 299 303 287 291 294 296 289 278 272 270 269 273 252 204 207 192 179 180 168 216 216 192 247 243 211 104 165 230 218 232 253 259 264 254 236 260 271 266 272 268 280 290 298 291 275 273 268 267 275 288 297 307 313 319 324 316 317 349 353 314 291
229 228 229 229 230 224 224 224 225 223 203 112 85 69 126 161 260 141 40 27 32 108 187 182 254 305 298 245 245 271 279 287 285 278 270 256 245 253 253 213 246 140 179 256 160 225 159 246 175 255 231 180 170 172 227 271 273 281 263 254 262 283 299 299 296 270 273 290 296 293 283 279 295 308 293 273 275 294 307 312 319 312 313 340 326 303 306
229 229 228 224 228 227 221 220 219 217 159 160 180 179 171 179 237 281 336 31 352 58 108 348 297 298 273 288 253 274 282 277 273 258 252 191 276 224 259 198 238 192 172 188 210 136 214 207 177 221 184 221 169 235 236 238 252 255 270 309 269 268 268 277 289 298 303 301 308 309 303 299 296 291 296 300 292 288 283 294 305 300 307 299 276 270 304
229 227 226 220 215 216 221 216 218 195 175 209 238 264 280 281 280 280 255 249 65 212 136 150 241 273 275 266 301 295 217 250 293 188 277 201 217 189 246 228 190 218 226 179 247 206 212 175 195 226 241 172 177 217 237 242 240 254 282 296 290 271 266 264 268 272 275 283 286 284 289 294 298 296 290 286 283 284 281 277 281 283 297 301 298 324 4
228 229 230 231 223 217 216 218 214 220 226 244 279 259 242 254 256 262 215 120 240 231 137 157 277 264 260 318 347 289 332 345 268 316 296 283 195 147 220 183 219 162 274 186 247 158 319 127 203 228 310 242 183 222 255 250 251 279 284 278 274 272 270 274 273 275 273 273 272 266 268 274 282 289 297 291 281 279 287 274 276 310 282 271 261 192 179
227 224 206 198 211 216 226 219 194 173 197 222 256 261 234 248 250 236 150 157 109 305 112 264 186 284 322 338 283 281 303 339 315 251 205 264 187 193 215 182 302 178 278 117 41 180 181 219 177 172 237 230 200 230 240 271 357 303 277 279 271 276 292 288 273 262 267 272 274 273 270 273 286 293 292 295 289 288 291 272 270 258 282 261 263 215 165
235 232 222 208 197 187 179 244 149 148 194 215 212 247 247 246 253 231 168 173 134 164 165 248 153 214 190 264 285 277 337 316 273 301 251 242 328 237 134 144 141 238 205 147 210 153 199 241 141 245 200 203 227 223 276 353 285 277 274 273 273 266 269 276 288 293 292 292 290 286 286 284 277 278 285 286 287 289 255 261 283 267 261 250 249 269 117
199 199 210 214 192 106 188 196 157 189 199 201 213 129 20 33 52 79 74 32 306 124 172 187 302 244 188 244 302 278 360 327 324 339 329 341 252 284 61 49 218 264 59 12 88 149 244 183 169 227 229 222 251 209 260 259 269 276 281 282 285 281 283 285 281 289 297 302 304 305 295 290 289 285 282 279 273 259 242 260 249 257 267 267 229 187 120
204 189 167 156 120 141 181 220 207 199 193 187 162 69 342 27 81 14 28 87 251 166 249 154 238 240 240 242 254 263 5 284 25 354 302 258 356 296 338 152 222 160 234 220 232 190 164 155 210 225 250 243 241 173 245 288 280 279 283 289 287 284 282 280 284 288 292 297 298 297 301 299 295 289 283 278 265 238 230 238 246 256 262 271 185 154 126
189 166 113 137 143 195 180 240 202 151 124 43 70 63 323 331 117 228 202 193 127 206 236 172 230 184 196 234 262 269 215 290 333 323 272 283 59 304 344 167 299 50 297 24 296 73 285 299 280 246 258 253 32 239 211 237 251 261 267 273 278 279 282 285 287 282 277 273 276 280 276 281 285 289 287 275 252 238 238 245 259 263 265 241 169 152 137
156 169 156 148 194 189 173 119 137 128 71 83 335 119 184 203 156 230 181 129 249 245 180 232 210 185 193 214 235 272 175 169 210 251 221 299 258 217 268 74 252 86 259 129 246 5 133 267 268 272 273 67 185 249 253 247 259 271 275 275 281 290 297 290 290 289 278 278 279 283 284 277 273 271 275 262 215 218 231 245 249 274 291 215 185 164 144
167 135 150 176 165 82 71 36 18 37 94 73 59 328 192 190 212 229 204 207 193 229 180 210 168 210 211 211 201 243 238 196 238 174 201 254 258 68 49 256 216 90 246 234 277 47 101 253 254 241 256 132 189 256 265 285 285 286 290 297 303 292 299 311 313 319 322 317 314 313 305 297 288 277 268 240 218 211 204 205 215 200 127 119 121 121 125
167 153 128 106 107 111 87 55 109 86 30 173 167 190 190 228 176 203 194 175 214 220 226 187 220 202 215 191 198 179 261 205 193 189 170 270 293 182 234 237 54 149 243 237 202 118 126 242 242 262 290 337 298 289 284 280 286 293 298 302 318 323 316 316 318 315 315 311 311 311 312 311 306 299 284 244 212 196 186 185 163 134 128 132 129 134 138
111 110 116 103 95 101 124 133 217 164 139 155 179 214 183 202 200 173 214 217 256 220 245 182 221 191 294 114 73 210 215 87 199 286 86 234 301 40 106 296 104 317 236 273 81 242 235 243 263 256 295 287 275 277 276 275 266 285 291 303 315 320 320 321 321 316 315 315 313 314 312 312 308 304 293 243 194 170 182 186 161 143 140 137 138 142 139
134 105 96 47 114 242 149 200 170 121 183 174 167 196 157 195 212 182 213 222 195 245 227 220 227 169 234 277 153 226 5 314 8 69 267 271 96 280 50 225 212 236 60 30 244 232 229 225 224 233 244 256 274 300 315 312 308 317 321 323 325 325 330 331 332 333 328 325 319 315 314 311 311 313 296 222 183 171 174 172 167 141 136 132 137 146 148
121 101 116 134 160 169 148 189 130 183 198 192 183 198 183 190 190 190 203 233 203 224 243 231 247 219 70 279 61 26 140 180 281 129 227 47 337 252 127 253 248 27 192 240 264 275 299 260 275 299 293 290 303 302 305 311 320 320 304 310 316 322 327 329 326 321 315 312 307 310 311 311 311 311 295 232 213 174 162 164 166 152 149 143 142 143 150
157 158 140 153 153 170 191 143 128 198 240 181 201 182 182 194 179 208 234 236 262 279 322 197 245 98 94 248 146 223 329 116 80 232 183 85 103 260 236 230 72 26 297 205 234 237 238 249 265 265 272 284 284 292 301 304 310 312 324 315 310 316 315 314 310 306 300 300 301 302 301 303 301 303 300 249 217 196 179 163 162 159 155 149 155 159 162
104 140 160 134 126 179 179 183 202 202 173 178 193 181 200 204 209 199 209 203 231 232 224 249 143 165 152 200 63 342 46 54 144 260 75 67 184 258 14 95 240 196 197 228 231 245 256 257 246 249 243 260 288 292 296 306 309 307 299 297 301 301 304 303 301 300 297 295 293 294 296 296 296 295 297 267 223 208 185 169 167 164 162 164 158 155 156
137 163 131 148 191 151 193 225 164 195 230 178 190 190 199 182 217 260 257 239 249 270 259 125 126 346 28 312 96 195 204 134 67 294 174 201 33 43 332 250 235 243 198 204 238 228 246 241 233 247 254 256 264 283 298 297 296 293 295 293 291 293 294 295 296 294 295 293 290 290 290 291 291 291 296 275 221 208 191 179 171 169 162 152 149 154 157
143 151 156 180 185 156 196 173 146 221 248 234 197 183 194 194 219 233 248 240 211 189 184 123 161 90 268 214 125 85 277 226 133 241 141 155 158 205 172 227 199 254 259 213 245 236 246 244 240 247 260 266 268 264 264 262 266 272 277 280 281 281 285 285 285 288 289 286 282 282 283 285 285 286 287 278 231 215 201 184 171 167 166 162 158 160 161
133 253 271 160 121 227 178 141 150 215 262 282 240 223 209 202 231 250 228 204 145 79 25 52 40 98 196 107 279 318 243 194 194 234 155 197 193 215 189 252 220 199 246 243 236 247 248 252 266 268 252 244 253 253 263 266 264 264 263 263 267 273 277 280 285 286 284 280 278 275 276 281 283 280 277 273 245 207 191 191 177 170 170 168 163 164 164
303 120 221 187 146 199 146 158 182 192 209 235 237 238 202 218 213 247 243 128 128 81 78 167 241 107 100 56 96 239 250 228 147 218 181 199 191 174 201 229 230 211 230 234 244 259 254 234 225 248 265 267 266 262 261 267 270 269 267 266 268 271 274 276 277 279 279 277 273 272 274 274 273 272 270 273 242 188 202 198 183 173 167 167 167 165 164
137 142 227 221 200 205 111 92 155 190 198 203 214 236 201 250 236 239 207 127 138 156 217 153 114 113 100 186 214 209 197 231 248 183 205 251 182 217 226 213 234 233 239 252 264 262 242 237 234 239 243 253 257 260 264 267 269 270 270 269 269 270 274 276 277 276 276 277 275 271 271 271 270 268 268 257 206 192 189 197 192 173 168 167 167 163 160